Retour au catalogue

KUIPER-00050

ActifCommunicationsLEO
NORAD 64510·PAYLOAD·🇺🇸 United States

Lancé Jun 23, 2025 depuis Cape Canaveral Space Force Station

Loading…

Prochains Passages (prochaines 24 heures)

TLE

FraisSource: CelesTrak SupGP

Époque: Sep 14, 2026, 19:55 UTC

1 64510C 25134L   26257.83024306  .00001528  00000+0  20003-3 0  2579
2 64510  51.8985  94.1762 0000756 111.4368 199.9578 14.79923272    10

Suivez KUIPER-00050 en temps réel avec AllMySat

Download on the App Store